Powrót do katalogu

DMSP 5D-2 F13 DEB

AktywnySSO
NORAD 40409·DEBRIS·🇺🇸 United States

Wystrzelony Mar 24, 1995 z Vandenberg Space Force Base

Loading…

Następne Przeloty (najbliższe 24 godziny)

TLE

ŚwieżeSource: Space-Track

Epoka: Sep 13, 2026, 08:04 UTC

1 40409U 95015W   26256.33667695  .00001651  00000-0  69116-3 0  9992
2 40409  98.7334 281.2745 0004424 145.5949 214.5518 14.27420475598333

Śledź DMSP 5D-2 F13 DEB w czasie rzeczywistym z AllMySat

Download on the App Store